Time,TemperatureF,DewpointF,PressureIn,WindDirection,WindDirectionDegrees,WindSpeedMPH,WindSpeedGustMPH,Humidity,HourlyPrecipIn,Conditions,Clouds,dailyrainin,SoftwareType,DateUTC
2013-02-09 00:00:00,16.4,14.5,29.61,ENE,65,15.0,16.0,92,0.00,,,0.00,VWS V14.01,2013-02-09 05:00:00,
2013-02-09 00:05:00,16.3,14.4,29.61,ESE,104,6.0,21.0,92,0.00,,,0.00,VWS V14.01,2013-02-09 05:05:00,
2013-02-09 00:10:00,16.3,14.4,29.62,NNE,15,14.0,21.0,92,0.00,,,0.00,VWS V14.01,2013-02-09 05:10:00,
2013-02-09 00:15:00,16.3,14.4,29.61,North,355,7.0,21.0,92,0.00,,,0.00,VWS V14.01,2013-02-09 05:15:00,
2013-02-09 00:20:00,16.2,14.3,29.62,NNE,14,11.0,21.0,92,0.00,,,0.00,VWS V14.01,2013-02-09 05:20:00,
2013-02-09 00:25:00,16.2,14.3,29.61,WNW,298,6.0,21.0,92,0.00,,,0.00,VWS V14.01,2013-02-09 05:25:00,
2013-02-09 00:30:00,16.0,14.1,29.60,NE,49,6.0,21.0,92,0.00,,,0.00,VWS V14.01,2013-02-09 05:30:00,
2013-02-09 00:35:00,15.9,14.0,29.60,NNE,28,11.0,21.0,92,0.00,,,0.00,VWS V14.01,2013-02-09 05:35:00,
2013-02-09 00:40:00,15.9,14.0,29.59,NW,323,12.0,21.0,92,0.00,,,0.00,VWS V14.01,2013-02-09 05:40:00,
2013-02-09 00:45:00,15.8,13.9,29.59,NNW,343,8.0,21.0,92,0.00,,,0.00,VWS V14.01,2013-02-09 05:45:00,
2013-02-09 00:50:00,15.7,13.8,29.59,NW,326,16.0,21.0,92,0.00,,,0.00,VWS V14.01,2013-02-09 05:50:00,
2013-02-09 00:55:00,15.6,13.4,29.59,WNW,288,23.0,26.0,91,0.00,,,0.00,VWS V14.01,2013-02-09 05:55:00,
2013-02-09 01:00:00,15.5,13.4,29.60,NNE,14,6.0,11.0,91,0.00,,,0.00,VWS V14.01,2013-02-09 06:00:00,
2013-02-09 01:05:00,15.5,13.4,29.60,NNE,20,4.0,16.0,91,0.00,,,0.00,VWS V14.01,2013-02-09 06:05:00,
2013-02-09 01:10:00,15.4,13.2,29.59,NNW,328,6.0,26.0,91,0.00,,,0.00,VWS V14.01,2013-02-09 06:10:00,
2013-02-09 01:15:00,15.3,13.1,29.59,NW,311,8.0,26.0,91,0.00,,,0.00,VWS V14.01,2013-02-09 06:15:00,
2013-02-09 01:20:00,15.3,13.1,29.60,SW,214,3.0,26.0,91,0.00,,,0.00,VWS V14.01,2013-02-09 06:20:00,
2013-02-09 01:25:00,15.2,13.1,29.60,North,351,6.0,26.0,91,0.00,,,0.00,VWS V14.01,2013-02-09 06:25:00,
2013-02-09 01:30:00,15.2,13.1,29.60,NW,317,10.0,26.0,91,0.00,,,0.00,VWS V14.01,2013-02-09 06:30:00,
2013-02-09 01:35:00,15.1,12.9,29.60,NW,323,15.0,26.0,91,0.00,,,0.00,VWS V14.01,2013-02-09 06:35:00,
2013-02-09 01:40:00,15.1,12.9,29.61,SSE,164,8.0,26.0,91,0.00,,,0.00,VWS V14.01,2013-02-09 06:40:00,
2013-02-09 01:45:00,15.0,12.9,29.61,NE,38,8.0,26.0,91,0.00,,,0.00,VWS V14.01,2013-02-09 06:45:00,
2013-02-09 01:50:00,15.0,12.9,29.60,NNE,30,12.0,26.0,91,0.00,,,0.00,VWS V14.01,2013-02-09 06:50:00,
2013-02-09 01:55:00,14.9,12.8,29.60,NE,49,4.0,26.0,91,0.00,,,0.00,VWS V14.01,2013-02-09 06:55:00,
2013-02-09 02:00:00,14.9,12.8,29.60,NE,35,10.0,17.0,91,0.00,,,0.00,VWS V14.01,2013-02-09 07:00:00,
2013-02-09 02:05:00,14.9,12.8,29.60,NE,47,15.0,23.0,91,0.00,,,0.00,VWS V14.01,2013-02-09 07:05:00,
2013-02-09 02:10:00,15.0,12.9,29.59,NNE,32,13.0,23.0,91,0.00,,,0.00,VWS V14.01,2013-02-09 07:10:00,
2013-02-09 02:15:00,15.0,12.9,29.59,NNE,19,16.0,23.0,91,0.00,,,0.00,VWS V14.01,2013-02-09 07:15:00,
2013-02-09 02:20:00,15.0,12.9,29.59,ENE,63,3.0,23.0,91,0.00,,,0.00,VWS V14.01,2013-02-09 07:20:00,
2013-02-09 02:25:00,15.1,13.2,29.59,North,350,8.0,23.0,92,0.00,,,0.00,VWS V14.01,2013-02-09 07:25:00,
2013-02-09 02:30:00,15.1,12.9,29.59,NNE,30,7.0,23.0,91,0.00,,,0.00,VWS V14.01,2013-02-09 07:30:00,
2013-02-09 02:35:00,15.2,13.3,29.59,NNW,340,9.0,23.0,92,0.00,,,0.00,VWS V14.01,2013-02-09 07:35:00,
2013-02-09 02:40:00,15.2,13.3,29.59,NNE,13,20.0,23.0,92,0.00,,,0.00,VWS V14.01,2013-02-09 07:40:00,
2013-02-09 02:45:00,15.2,13.3,29.59,NE,46,6.0,23.0,92,0.00,,,0.00,VWS V14.01,2013-02-09 07:45:00,
2013-02-09 02:50:00,15.3,13.4,29.59,NE,54,2.0,23.0,92,0.00,,,0.00,VWS V14.01,2013-02-09 07:50:00,
2013-02-09 02:55:00,15.4,13.5,29.59,NNW,343,6.0,23.0,92,0.00,,,0.00,VWS V14.01,2013-02-09 07:55:00,
2013-02-09 03:00:00,15.4,13.5,29.60,West,271,18.0,19.0,92,0.00,,,0.00,VWS V14.01,2013-02-09 08:00:00,
2013-02-09 03:05:00,15.6,13.7,29.60,West,261,8.0,19.0,92,0.00,,,0.00,VWS V14.01,2013-02-09 08:05:00,
2013-02-09 03:10:00,15.6,13.7,29.60,West,269,3.0,19.0,92,0.00,,,0.00,VWS V14.01,2013-02-09 08:10:00,
2013-02-09 03:15:00,15.6,13.7,29.59,NW,326,9.0,28.0,92,0.00,,,0.00,VWS V14.01,2013-02-09 08:15:00,
2013-02-09 03:20:00,15.8,13.9,29.61,NW,307,4.0,28.0,92,0.00,,,0.00,VWS V14.01,2013-02-09 08:20:00,
2013-02-09 03:25:00,15.8,13.9,29.61,NW,318,4.0,28.0,92,0.00,,,0.00,VWS V14.01,2013-02-09 08:25:00,
2013-02-09 03:30:00,15.8,13.9,29.61,NNW,337,5.0,28.0,92,0.00,,,0.00,VWS V14.01,2013-02-09 08:30:00,
2013-02-09 03:35:00,15.8,13.9,29.61,NNW,340,3.0,28.0,92,0.00,,,0.00,VWS V14.01,2013-02-09 08:35:00,
2013-02-09 03:40:00,15.9,14.0,29.62,NW,316,4.0,28.0,92,0.00,,,0.00,VWS V14.01,2013-02-09 08:40:00,
2013-02-09 03:45:00,16.0,14.1,29.61,NW,316,7.0,28.0,92,0.00,,,0.00,VWS V14.01,2013-02-09 08:45:00,
2013-02-09 03:50:00,16.1,14.2,29.61,NW,315,7.0,28.0,92,0.00,,,0.00,VWS V14.01,2013-02-09 08:50:00,
2013-02-09 03:55:00,16.2,14.3,29.61,NW,313,7.0,28.0,92,0.00,,,0.00,VWS V14.01,2013-02-09 08:55:00,
2013-02-09 04:00:00,16.3,14.4,29.61,NW,326,10.0,10.0,92,0.00,,,0.00,VWS V14.01,2013-02-09 09:00:00,
2013-02-09 04:05:00,16.4,14.5,29.62,NNE,15,3.0,12.0,92,0.00,,,0.00,VWS V14.01,2013-02-09 09:05:00,
2013-02-09 04:10:00,16.5,14.6,29.62,NNW,331,7.0,13.0,92,0.00,,,0.00,VWS V14.01,2013-02-09 09:10:00,
2013-02-09 04:15:00,16.4,14.5,29.61,WNW,295,3.0,13.0,92,0.00,,,0.00,VWS V14.01,2013-02-09 09:15:00,
2013-02-09 04:20:00,16.4,14.5,29.61,NNW,340,2.0,13.0,92,0.00,,,0.00,VWS V14.01,2013-02-09 09:20:00,
2013-02-09 04:25:00,16.3,14.4,29.62,NNE,15,5.0,13.0,92,0.00,,,0.00,VWS V14.01,2013-02-09 09:25:00,
2013-02-09 04:30:00,16.2,14.3,29.62,West,280,3.0,13.0,92,0.00,,,0.00,VWS V14.01,2013-02-09 09:30:00,
2013-02-09 04:35:00,16.1,14.2,29.62,WNW,288,2.0,19.0,92,0.00,,,0.00,VWS V14.01,2013-02-09 09:35:00,
2013-02-09 04:40:00,16.1,14.2,29.62,East,93,4.0,19.0,92,0.00,,,0.00,VWS V14.01,2013-02-09 09:40:00,
2013-02-09 04:45:00,16.1,14.2,29.62,NW,309,3.0,19.0,92,0.00,,,0.00,VWS V14.01,2013-02-09 09:45:00,
2013-02-09 04:50:00,16.1,14.2,29.61,West,279,6.0,19.0,92,0.00,,,0.00,VWS V14.01,2013-02-09 09:50:00,
2013-02-09 04:55:00,16.1,14.2,29.61,NE,47,3.0,19.0,92,0.00,,,0.00,VWS V14.01,2013-02-09 09:55:00,
2013-02-09 05:00:00,16.2,14.3,29.61,NNE,20,6.0,12.0,92,0.00,,,0.00,VWS V14.01,2013-02-09 10:00:00,
2013-02-09 05:05:00,16.2,14.3,29.61,NW,323,11.0,15.0,92,0.00,,,0.00,VWS V14.01,2013-02-09 10:05:00,
2013-02-09 05:10:00,16.3,14.4,29.61,NNE,32,3.0,15.0,92,0.00,,,0.00,VWS V14.01,2013-02-09 10:10:00,
2013-02-09 05:15:00,16.3,14.4,29.61,WNW,290,6.0,17.0,92,0.00,,,0.00,VWS V14.01,2013-02-09 10:15:00,
2013-02-09 05:20:00,16.4,14.5,29.61,NW,314,7.0,17.0,92,0.00,,,0.00,VWS V14.01,2013-02-09 10:20:00,
2013-02-09 05:25:00,16.4,14.5,29.61,NW,323,9.0,24.0,92,0.00,,,0.00,VWS V14.01,2013-02-09 10:25:00,
2013-02-09 05:30:00,16.5,14.6,29.62,NNW,336,5.0,24.0,92,0.00,,,0.00,VWS V14.01,2013-02-09 10:30:00,
2013-02-09 05:35:00,16.6,14.7,29.62,WNW,300,5.0,24.0,92,0.00,,,0.00,VWS V14.01,2013-02-09 10:35:00,
2013-02-09 05:40:00,16.7,14.8,29.61,NW,307,5.0,24.0,92,0.00,,,0.00,VWS V14.01,2013-02-09 10:40:00,
2013-02-09 05:45:00,16.8,14.9,29.63,NW,326,6.0,24.0,92,0.00,,,0.00,VWS V14.01,2013-02-09 10:45:00,
2013-02-09 05:50:00,16.9,15.0,29.62,NNW,337,8.0,24.0,92,0.00,,,0.00,VWS V14.01,2013-02-09 10:50:00,
2013-02-09 05:55:00,17.0,15.1,29.62,NNW,331,3.0,24.0,92,0.00,,,0.00,VWS V14.01,2013-02-09 10:55:00,
2013-02-09 06:00:00,17.2,15.3,29.62,NNE,17,12.0,12.0,92,0.00,,,0.00,VWS V14.01,2013-02-09 11:00:00,
2013-02-09 06:05:00,17.5,15.6,29.63,NNE,30,10.0,15.0,92,0.00,,,0.00,VWS V14.01,2013-02-09 11:05:00,
2013-02-09 06:10:00,17.7,16.0,29.63,NE,44,8.0,15.0,93,0.00,,,0.00,VWS V14.01,2013-02-09 11:10:00,
2013-02-09 06:15:00,18.0,16.3,29.64,NE,49,5.0,15.0,93,0.00,,,0.00,VWS V14.01,2013-02-09 11:15:00,
2013-02-09 06:20:00,18.3,16.6,29.64,NW,311,5.0,15.0,93,0.00,,,0.00,VWS V14.01,2013-02-09 11:20:00,
2013-02-09 06:25:00,18.5,16.8,29.64,ENE,70,5.0,15.0,93,0.00,,,0.00,VWS V14.01,2013-02-09 11:25:00,
2013-02-09 06:30:00,18.6,16.9,29.64,NW,311,5.0,15.0,93,0.00,,,0.00,VWS V14.01,2013-02-09 11:30:00,
2013-02-09 06:35:00,18.7,17.0,29.65,WNW,300,5.0,24.0,93,0.00,,,0.00,VWS V14.01,2013-02-09 11:35:00,
2013-02-09 06:40:00,18.8,17.1,29.65,NNW,328,2.0,24.0,93,0.00,,,0.00,VWS V14.01,2013-02-09 11:40:00,
2013-02-09 06:45:00,18.9,17.2,29.65,NNW,340,6.0,24.0,93,0.00,,,0.00,VWS V14.01,2013-02-09 11:45:00,
2013-02-09 06:50:00,19.0,17.3,29.65,NNW,348,8.0,24.0,93,0.00,,,0.00,VWS V14.01,2013-02-09 11:50:00,
2013-02-09 06:55:00,19.0,17.3,29.66,NNE,32,5.0,24.0,93,0.00,,,0.00,VWS V14.01,2013-02-09 11:55:00,
2013-02-09 07:00:00,19.0,17.3,29.66,West,279,5.0,9.0,93,0.00,,,0.00,VWS V14.01,2013-02-09 12:00:00,
2013-02-09 07:05:00,19.0,17.3,29.66,West,278,4.0,13.0,93,0.00,,,0.00,VWS V14.01,2013-02-09 12:05:00,
2013-02-09 07:10:00,19.0,17.3,29.67,ENE,59,3.0,13.0,93,0.00,,,0.00,VWS V14.01,2013-02-09 12:10:00,
2013-02-09 07:15:00,19.0,17.3,29.67,WNW,298,4.0,13.0,93,0.00,,,0.00,VWS V14.01,2013-02-09 12:15:00,
2013-02-09 07:20:00,19.0,17.3,29.67,West,268,5.0,13.0,93,0.00,,,0.00,VWS V14.01,2013-02-09 12:20:00,
2013-02-09 07:25:00,19.0,17.3,29.67,NNE,33,7.0,13.0,93,0.00,,,0.00,VWS V14.01,2013-02-09 12:25:00,
2013-02-09 07:30:00,19.0,17.3,29.67,NW,319,8.0,18.0,93,0.00,,,0.00,VWS V14.01,2013-02-09 12:30:00,
2013-02-09 07:35:00,18.9,17.2,29.67,NNE,19,7.0,18.0,93,0.00,,,0.00,VWS V14.01,2013-02-09 12:35:00,
2013-02-09 07:40:00,19.0,17.3,29.67,NNE,22,4.0,18.0,93,0.00,,,0.00,VWS V14.01,2013-02-09 12:40:00,
2013-02-09 07:45:00,18.9,17.2,29.67,NNW,327,2.0,18.0,93,0.00,,,0.00,VWS V14.01,2013-02-09 12:45:00,
2013-02-09 07:50:00,19.0,17.3,29.67,WNW,299,7.0,18.0,93,0.00,,,0.00,VWS V14.01,2013-02-09 12:50:00,
2013-02-09 07:55:00,19.0,17.3,29.68,NNE,12,7.0,20.0,93,0.00,,,0.00,VWS V14.01,2013-02-09 12:55:00,
2013-02-09 08:00:00,18.9,17.2,29.68,West,271,2.0,10.0,93,0.00,,,0.00,VWS V14.01,2013-02-09 13:00:00,
2013-02-09 08:05:00,18.9,17.0,29.69,ENE,67,4.0,11.0,92,0.00,,,0.00,VWS V14.01,2013-02-09 13:05:00,
2013-02-09 08:10:00,18.9,17.0,29.69,WNW,295,6.0,11.0,92,0.00,,,0.00,VWS V14.01,2013-02-09 13:10:00,
2013-02-09 08:15:00,18.7,16.8,29.69,NNW,348,6.0,11.0,92,0.00,,,0.00,VWS V14.01,2013-02-09 13:15:00,
2013-02-09 08:20:00,18.6,16.7,29.69,WNW,294,4.0,16.0,92,0.00,,,0.00,VWS V14.01,2013-02-09 13:20:00,
2013-02-09 08:25:00,18.4,16.5,29.69,NW,312,7.0,18.0,92,0.00,,,0.00,VWS V14.01,2013-02-09 13:25:00,
2013-02-09 08:30:00,18.2,16.3,29.70,NW,311,2.0,18.0,92,0.00,,,0.00,VWS V14.01,2013-02-09 13:30:00,
2013-02-09 08:35:00,18.1,16.2,29.70,NW,323,10.0,20.0,92,0.00,,,0.00,VWS V14.01,2013-02-09 13:35:00,
2013-02-09 08:40:00,17.9,16.0,29.71,North,360,12.0,20.0,92,0.00,,,0.00,VWS V14.01,2013-02-09 13:40:00,
2013-02-09 08:45:00,17.8,15.9,29.71,NW,309,3.0,20.0,92,0.00,,,0.00,VWS V14.01,2013-02-09 13:45:00,
2013-02-09 08:50:00,17.8,15.9,29.71,WNW,294,5.0,20.0,92,0.00,,,0.00,VWS V14.01,2013-02-09 13:50:00,
2013-02-09 08:55:00,17.8,15.9,29.71,NNE,22,2.0,20.0,92,0.00,,,0.00,VWS V14.01,2013-02-09 13:55:00,
2013-02-09 09:00:00,17.9,16.0,29.72,NW,309,5.0,8.0,92,0.00,,,0.00,VWS V14.01,2013-02-09 14:00:00,
2013-02-09 09:05:00,17.7,15.8,29.72,North,5,7.0,15.0,92,0.00,,,0.00,VWS V14.01,2013-02-09 14:05:00,
2013-02-09 09:10:00,17.5,15.6,29.72,NW,323,3.0,15.0,92,0.00,,,0.00,VWS V14.01,2013-02-09 14:10:00,
2013-02-09 09:15:00,17.4,15.2,29.72,NE,49,2.0,15.0,91,0.00,,,0.00,VWS V14.01,2013-02-09 14:15:00,
2013-02-09 09:20:00,17.4,15.5,29.73,NW,315,6.0,15.0,92,0.00,,,0.00,VWS V14.01,2013-02-09 14:20:00,
2013-02-09 09:25:00,17.2,15.0,29.73,NNE,16,2.0,15.0,91,0.00,,,0.00,VWS V14.01,2013-02-09 14:25:00,
2013-02-09 09:30:00,16.9,14.7,29.73,WNW,288,4.0,15.0,91,0.00,,,0.00,VWS V14.01,2013-02-09 14:30:00,
2013-02-09 09:35:00,16.8,14.6,29.74,NW,313,8.0,15.0,91,0.00,,,0.00,VWS V14.01,2013-02-09 14:35:00,
2013-02-09 09:40:00,16.7,14.5,29.74,NNE,30,1.0,17.0,91,0.00,,,0.00,VWS V14.01,2013-02-09 14:40:00,
2013-02-09 09:45:00,16.6,14.4,29.74,WNW,298,5.0,17.0,91,0.00,,,0.00,VWS V14.01,2013-02-09 14:45:00,
2013-02-09 09:50:00,16.4,14.2,29.75,NNE,14,12.0,21.0,91,0.00,,,0.00,VWS V14.01,2013-02-09 14:50:00,
2013-02-09 09:55:00,16.3,14.1,29.75,WNW,294,6.0,21.0,91,0.00,,,0.00,VWS V14.01,2013-02-09 14:55:00,
2013-02-09 10:00:00,16.3,14.1,29.75,WNW,292,11.0,11.0,91,0.00,,,0.00,VWS V14.01,2013-02-09 15:00:00,
2013-02-09 10:05:00,16.3,14.1,29.75,WNW,296,9.0,14.0,91,0.00,,,0.00,VWS V14.01,2013-02-09 15:05:00,
2013-02-09 10:10:00,16.3,14.1,29.75,WNW,286,9.0,14.0,91,0.00,,,0.00,VWS V14.01,2013-02-09 15:10:00,
2013-02-09 10:15:00,16.4,14.2,29.76,WNW,303,4.0,14.0,91,0.00,,,0.00,VWS V14.01,2013-02-09 15:15:00,
2013-02-09 10:20:00,16.4,14.2,29.76,WNW,289,17.0,17.0,91,0.00,,,0.00,VWS V14.01,2013-02-09 15:20:00,
2013-02-09 10:25:00,16.4,14.2,29.76,NW,317,15.0,17.0,91,0.00,,,0.00,VWS V14.01,2013-02-09 15:25:00,
2013-02-09 10:30:00,16.4,14.2,29.76,WNW,300,9.0,21.0,91,0.00,,,0.00,VWS V14.01,2013-02-09 15:30:00,
2013-02-09 10:35:00,16.6,14.4,29.76,NW,315,7.0,21.0,91,0.00,,,0.00,VWS V14.01,2013-02-09 15:35:00,
2013-02-09 10:40:00,16.6,14.4,29.76,WNW,295,3.0,21.0,91,0.00,,,0.00,VWS V14.01,2013-02-09 15:40:00,
2013-02-09 10:45:00,16.8,14.6,29.77,North,5,10.0,21.0,91,0.00,,,0.00,VWS V14.01,2013-02-09 15:45:00,
2013-02-09 10:50:00,16.9,14.7,29.77,NW,306,3.0,21.0,91,0.00,,,0.00,VWS V14.01,2013-02-09 15:50:00,
2013-02-09 10:55:00,17.1,14.9,29.77,NNE,14,15.0,21.0,91,0.00,,,0.00,VWS V14.01,2013-02-09 15:55:00,
2013-02-09 11:00:00,17.2,15.0,29.77,NNE,17,7.0,11.0,91,0.00,,,0.00,VWS V14.01,2013-02-09 16:00:00,
2013-02-09 11:05:00,17.1,14.9,29.77,NNE,28,12.0,17.0,91,0.00,,,0.00,VWS V14.01,2013-02-09 16:05:00,
2013-02-09 11:10:00,17.3,15.1,29.77,NW,310,7.0,17.0,91,0.00,,,0.00,VWS V14.01,2013-02-09 16:10:00,
2013-02-09 11:15:00,17.3,14.9,29.77,WNW,298,10.0,17.0,90,0.00,,,0.00,VWS V14.01,2013-02-09 16:15:00,
2013-02-09 11:20:00,17.3,15.1,29.78,NW,311,5.0,17.0,91,0.00,,,0.00,VWS V14.01,2013-02-09 16:20:00,
2013-02-09 11:25:00,17.6,15.4,29.78,West,272,10.0,17.0,91,0.00,,,0.00,VWS V14.01,2013-02-09 16:25:00,
2013-02-09 11:30:00,17.7,15.5,29.78,West,281,17.0,17.0,91,0.00,,,0.00,VWS V14.01,2013-02-09 16:30:00,
2013-02-09 11:35:00,17.8,15.6,29.78,WNW,300,11.0,17.0,91,0.00,,,0.00,VWS V14.01,2013-02-09 16:35:00,
2013-02-09 11:40:00,18.0,15.8,29.78,WNW,297,4.0,17.0,91,0.00,,,0.00,VWS V14.01,2013-02-09 16:40:00,
2013-02-09 11:45:00,18.1,15.9,29.78,WNW,293,6.0,17.0,91,0.00,,,0.00,VWS V14.01,2013-02-09 16:45:00,
2013-02-09 11:50:00,18.3,15.9,29.78,NW,321,4.0,17.0,90,0.00,,,0.00,VWS V14.01,2013-02-09 16:50:00,
2013-02-09 11:55:00,18.2,15.8,29.78,NW,307,13.0,21.0,90,0.00,,,0.00,VWS V14.01,2013-02-09 16:55:00,
2013-02-09 12:00:00,18.1,15.7,29.78,WNW,302,5.0,17.0,90,0.00,,,0.00,VWS V14.01,2013-02-09 17:00:00,
2013-02-09 12:05:00,18.2,15.8,29.78,WNW,283,10.0,17.0,90,0.00,,,0.00,VWS V14.01,2013-02-09 17:05:00,
2013-02-09 12:10:00,18.2,15.8,29.79,NW,322,10.0,20.0,90,0.00,,,0.00,VWS V14.01,2013-02-09 17:10:00,
2013-02-09 12:15:00,18.2,15.8,29.79,NW,309,11.0,20.0,90,0.00,,,0.00,VWS V14.01,2013-02-09 17:15:00,
2013-02-09 12:20:00,18.3,15.9,29.80,WNW,300,7.0,20.0,90,0.00,,,0.00,VWS V14.01,2013-02-09 17:20:00,
2013-02-09 12:25:00,18.4,16.0,29.79,ENE,74,3.0,23.0,90,0.00,,,0.00,VWS V14.01,2013-02-09 17:25:00,
2013-02-09 12:30:00,18.7,16.3,29.80,WNW,286,8.0,23.0,90,0.00,,,0.00,VWS V14.01,2013-02-09 17:30:00,
2013-02-09 12:35:00,18.8,16.4,29.80,West,269,10.0,23.0,90,0.00,,,0.00,VWS V14.01,2013-02-09 17:35:00,
2013-02-09 12:40:00,19.1,16.9,29.80,WNW,303,5.0,23.0,91,0.00,,,0.00,VWS V14.01,2013-02-09 17:40:00,
2013-02-09 12:45:00,19.0,16.3,29.80,WNW,293,4.0,23.0,89,0.00,,,0.00,VWS V14.01,2013-02-09 17:45:00,
2013-02-09 12:50:00,18.8,16.1,29.81,NNW,336,10.0,23.0,89,0.00,,,0.00,VWS V14.01,2013-02-09 17:50:00,
2013-02-09 12:55:00,18.6,15.9,29.81,NW,307,8.0,23.0,89,0.00,,,0.00,VWS V14.01,2013-02-09 17:55:00,
2013-02-09 13:00:00,18.6,15.9,29.82,WNW,295,9.0,9.0,89,0.00,,,0.00,VWS V14.01,2013-02-09 18:00:00,
2013-02-09 13:05:00,18.8,16.4,29.82,WNW,292,9.0,17.0,90,0.00,,,0.00,VWS V14.01,2013-02-09 18:05:00,
2013-02-09 13:10:00,18.7,16.0,29.82,NW,308,8.0,17.0,89,0.00,,,0.00,VWS V14.01,2013-02-09 18:10:00,
2013-02-09 13:15:00,18.8,16.1,29.83,NW,317,11.0,17.0,89,0.00,,,0.00,VWS V14.01,2013-02-09 18:15:00,
2013-02-09 13:20:00,18.8,15.8,29.83,WSW,257,9.0,19.0,88,0.00,,,0.00,VWS V14.01,2013-02-09 18:20:00,
2013-02-09 13:25:00,18.9,15.9,29.83,WNW,288,4.0,19.0,88,0.00,,,0.00,VWS V14.01,2013-02-09 18:25:00,
2013-02-09 13:30:00,18.9,15.4,29.83,WNW,287,8.0,19.0,86,0.00,,,0.00,VWS V14.01,2013-02-09 18:30:00,
2013-02-09 13:35:00,19.0,15.5,29.83,WNW,296,4.0,21.0,86,0.00,,,0.00,VWS V14.01,2013-02-09 18:35:00,
2013-02-09 13:40:00,19.1,15.3,29.84,WNW,283,6.0,21.0,85,0.00,,,0.00,VWS V14.01,2013-02-09 18:40:00,
2013-02-09 13:45:00,19.1,15.1,29.84,WNW,291,9.0,21.0,84,0.00,,,0.00,VWS V14.01,2013-02-09 18:45:00,
2013-02-09 13:50:00,19.2,15.2,29.84,WNW,287,5.0,21.0,84,0.00,,,0.00,VWS V14.01,2013-02-09 18:50:00,
2013-02-09 13:55:00,19.3,14.7,29.84,NW,309,7.0,21.0,82,0.00,,,0.00,VWS V14.01,2013-02-09 18:55:00,
2013-02-09 14:00:00,19.3,14.4,29.84,NW,321,12.0,16.0,81,0.00,,OVC036,0.00,VWS V14.01,2013-02-09 19:00:00,
2013-02-09 14:05:00,19.2,14.6,29.85,East,98,2.0,17.0,82,0.00,,OVC036,0.00,VWS V14.01,2013-02-09 19:05:00,
2013-02-09 14:10:00,19.3,14.4,29.85,WNW,300,7.0,17.0,81,0.00,,OVC036,0.00,VWS V14.01,2013-02-09 19:10:00,
2013-02-09 14:15:00,19.4,14.0,29.86,NW,318,9.0,20.0,79,0.00,,OVC036,0.00,VWS V14.01,2013-02-09 19:15:00,
2013-02-09 14:20:00,19.3,13.6,29.86,NNW,343,7.0,20.0,78,0.00,,OVC036,0.00,VWS V14.01,2013-02-09 19:20:00,
2013-02-09 14:25:00,19.3,13.3,29.87,WNW,294,7.0,20.0,77,0.00,,OVC036,0.00,VWS V14.01,2013-02-09 19:25:00,
2013-02-09 14:30:00,19.2,13.2,29.87,NNW,332,3.0,20.0,77,0.00,,OVC036,0.00,VWS V14.01,2013-02-09 19:30:00,
2013-02-09 14:35:00,19.4,13.1,29.88,NE,44,6.0,20.0,76,0.00,,OVC036,0.00,VWS V14.01,2013-02-09 19:35:00,
2013-02-09 14:40:00,19.4,13.4,29.88,WNW,300,7.0,20.0,77,0.00,,OVC036,0.00,VWS V14.01,2013-02-09 19:40:00,
2013-02-09 14:45:00,19.4,12.8,29.88,NNW,327,6.0,20.0,75,0.00,,OVC036,0.00,VWS V14.01,2013-02-09 19:45:00,
2013-02-09 14:50:00,19.6,12.7,29.89,WNW,295,4.0,20.0,74,0.00,,OVC036,0.00,VWS V14.01,2013-02-09 19:50:00,
2013-02-09 14:55:00,19.7,12.8,29.89,WNW,295,5.0,20.0,74,0.00,,OVC036,0.00,VWS V14.01,2013-02-09 19:55:00,
2013-02-09 15:00:00,19.8,12.2,29.89,WNW,295,4.0,13.0,72,0.00,,,0.00,VWS V14.01,2013-02-09 20:00:00,
2013-02-09 15:05:00,19.8,11.6,29.90,WNW,288,4.0,13.0,70,0.00,,,0.00,VWS V14.01,2013-02-09 20:05:00,
2013-02-09 15:10:00,20.1,11.9,29.90,WNW,299,7.0,13.0,70,0.00,,,0.00,VWS V14.01,2013-02-09 20:10:00,
2013-02-09 15:15:00,20.2,12.3,29.91,NW,323,8.0,16.0,71,0.00,,,0.00,VWS V14.01,2013-02-09 20:15:00,
2013-02-09 15:20:00,20.4,11.9,29.91,North,355,5.0,16.0,69,0.00,,,0.00,VWS V14.01,2013-02-09 20:20:00,
2013-02-09 15:25:00,20.6,12.4,29.92,NW,325,20.0,20.0,70,0.00,,,0.00,VWS V14.01,2013-02-09 20:25:00,
2013-02-09 15:30:00,20.4,12.5,29.92,NNW,331,10.0,23.0,71,0.00,,,0.00,VWS V14.01,2013-02-09 20:30:00,
2013-02-09 15:35:00,20.2,12.3,29.92,WNW,303,4.0,23.0,71,0.00,,,0.00,VWS V14.01,2013-02-09 20:35:00,
2013-02-09 15:40:00,20.1,12.2,29.93,NNE,16,6.0,23.0,71,0.00,,,0.00,VWS V14.01,2013-02-09 20:40:00,
2013-02-09 15:45:00,20.1,12.2,29.93,NW,312,8.0,23.0,71,0.00,,,0.00,VWS V14.01,2013-02-09 20:45:00,
2013-02-09 15:50:00,20.0,10.8,29.93,WNW,291,9.0,23.0,67,0.00,,,0.00,VWS V14.01,2013-02-09 20:50:00,
2013-02-09 15:55:00,19.9,11.7,29.94,NE,44,6.0,23.0,70,0.00,,,0.00,VWS V14.01,2013-02-09 20:55:00,
2013-02-09 16:00:00,19.8,11.0,29.94,NNW,340,12.0,14.0,68,0.00,,,0.00,VWS V14.01,2013-02-09 21:00:00,
2013-02-09 16:05:00,19.8,11.3,29.94,WNW,298,5.0,14.0,69,0.00,,,0.00,VWS V14.01,2013-02-09 21:05:00,
2013-02-09 16:10:00,19.8,11.0,29.95,North,10,11.0,14.0,68,0.00,,,0.00,VWS V14.01,2013-02-09 21:10:00,
2013-02-09 16:15:00,19.9,10.7,29.95,West,276,3.0,20.0,67,0.00,,,0.00,VWS V14.01,2013-02-09 21:15:00,
2013-02-09 16:20:00,20.0,10.5,29.96,NNE,32,5.0,20.0,66,0.00,,,0.00,VWS V14.01,2013-02-09 21:20:00,
2013-02-09 16:25:00,20.0,10.8,29.96,NNW,348,16.0,20.0,67,0.00,,,0.00,VWS V14.01,2013-02-09 21:25:00,
2013-02-09 16:30:00,20.1,10.6,29.96,West,277,4.0,20.0,66,0.00,,,0.00,VWS V14.01,2013-02-09 21:30:00,
2013-02-09 16:35:00,20.2,11.0,29.96,NW,325,5.0,20.0,67,0.00,,,0.00,VWS V14.01,2013-02-09 21:35:00,
2013-02-09 16:40:00,20.3,10.8,29.97,NNW,348,0.0,20.0,66,0.00,,,0.00,VWS V14.01,2013-02-09 21:40:00,
2013-02-09 16:45:00,20.4,10.5,29.97,NE,54,11.0,20.0,65,0.00,,,0.00,VWS V14.01,2013-02-09 21:45:00,
2013-02-09 16:50:00,20.5,10.3,29.97,NNW,329,9.0,20.0,64,0.00,,,0.00,VWS V14.01,2013-02-09 21:50:00,
2013-02-09 16:55:00,20.5,9.9,29.97,WNW,291,6.0,20.0,63,0.00,,,0.00,VWS V14.01,2013-02-09 21:55:00,
2013-02-09 17:00:00,20.4,10.2,29.98,WNW,296,9.0,12.0,64,0.00,,,0.00,VWS V14.01,2013-02-09 22:00:00,
2013-02-09 17:05:00,20.4,9.8,29.98,WNW,300,2.0,15.0,63,0.00,,,0.00,VWS V14.01,2013-02-09 22:05:00,
2013-02-09 17:10:00,20.3,9.7,29.99,NNW,329,6.0,15.0,63,0.00,,,0.00,VWS V14.01,2013-02-09 22:10:00,
2013-02-09 17:15:00,20.2,9.6,29.99,NNW,343,8.0,15.0,63,0.00,,,0.00,VWS V14.01,2013-02-09 22:15:00,
2013-02-09 17:20:00,20.2,9.3,29.99,NNW,328,7.0,15.0,62,0.00,,,0.00,VWS V14.01,2013-02-09 22:20:00,
2013-02-09 17:25:00,20.1,9.2,30.00,WNW,292,2.0,15.0,62,0.00,,,0.00,VWS V14.01,2013-02-09 22:25:00,
2013-02-09 17:30:00,20.1,9.2,30.00,NW,307,10.0,15.0,62,0.00,,,0.00,VWS V14.01,2013-02-09 22:30:00,
2013-02-09 17:35:00,20.1,8.5,30.00,WNW,300,1.0,18.0,60,0.00,,,0.00,VWS V14.01,2013-02-09 22:35:00,
2013-02-09 17:40:00,20.1,8.8,30.01,WNW,290,3.0,18.0,61,0.00,,,0.00,VWS V14.01,2013-02-09 22:40:00,
2013-02-09 17:45:00,20.1,8.5,30.01,NNW,336,17.0,18.0,60,0.00,,,0.00,VWS V14.01,2013-02-09 22:45:00,
2013-02-09 17:50:00,20.1,8.8,30.02,WNW,288,1.0,20.0,61,0.00,,,0.00,VWS V14.01,2013-02-09 22:50:00,
2013-02-09 17:55:00,20.1,8.5,30.02,NW,307,4.0,20.0,60,0.00,,,0.00,VWS V14.01,2013-02-09 22:55:00,
2013-02-09 18:00:00,20.0,8.4,30.02,West,277,7.0,15.0,60,0.00,,BKN150,0.00,VWS V14.01,2013-02-09 23:00:00,
2013-02-09 18:05:00,20.1,8.5,30.02,West,275,1.0,15.0,60,0.00,,BKN150,0.00,VWS V14.01,2013-02-09 23:05:00,
2013-02-09 18:10:00,19.9,8.6,30.03,NNW,329,7.0,15.0,61,0.00,,BKN150,0.00,VWS V14.01,2013-02-09 23:10:00,
2013-02-09 18:15:00,19.8,8.2,30.03,WNW,298,5.0,15.0,60,0.00,,BKN150,0.00,VWS V14.01,2013-02-09 23:15:00,
2013-02-09 18:20:00,19.7,8.1,30.04,NNW,331,3.0,15.0,60,0.00,,BKN150,0.00,VWS V14.01,2013-02-09 23:20:00,
2013-02-09 18:25:00,19.6,8.0,30.04,West,265,6.0,15.0,60,0.00,,BKN150,0.00,VWS V14.01,2013-02-09 23:25:00,
2013-02-09 18:30:00,19.4,7.8,30.05,NNW,334,7.0,15.0,60,0.00,,BKN150,0.00,VWS V14.01,2013-02-09 23:30:00,
2013-02-09 18:35:00,19.4,7.8,30.05,WNW,296,4.0,15.0,60,0.00,,BKN150,0.00,VWS V14.01,2013-02-09 23:35:00,
2013-02-09 18:40:00,19.3,7.7,30.05,West,281,7.0,15.0,60,0.00,,BKN150,0.00,VWS V14.01,2013-02-09 23:40:00,
2013-02-09 18:45:00,19.2,7.2,30.05,WNW,303,11.0,22.0,59,0.00,,BKN150,0.00,VWS V14.01,2013-02-09 23:45:00,
2013-02-09 18:50:00,19.1,7.5,30.05,NW,318,7.0,22.0,60,0.00,,BKN150,0.00,VWS V14.01,2013-02-09 23:50:00,
2013-02-09 18:55:00,18.9,7.3,30.06,NW,319,5.0,22.0,60,0.00,,BKN150,0.00,VWS V14.01,2013-02-09 23:55:00,
2013-02-09 19:00:00,18.8,7.2,30.06,NW,309,4.0,11.0,60,0.00,,BKN250,0.00,VWS V14.01,2013-02-10 00:00:00,
2013-02-09 19:05:00,18.7,7.1,30.07,WNW,292,6.0,16.0,60,0.00,,BKN250,0.00,VWS V14.01,2013-02-10 00:05:00,
2013-02-09 19:10:00,18.6,7.0,30.07,NNW,343,1.0,16.0,60,0.00,,BKN250,0.00,VWS V14.01,2013-02-10 00:10:00,
2013-02-09 19:15:00,18.5,6.9,30.07,West,275,3.0,16.0,60,0.00,,BKN250,0.00,VWS V14.01,2013-02-10 00:15:00,
2013-02-09 19:20:00,18.3,6.8,30.07,WNW,303,3.0,16.0,60,0.00,,BKN250,0.00,VWS V14.01,2013-02-10 00:20:00,
2013-02-09 19:25:00,18.2,6.7,30.07,WNW,294,5.0,16.0,60,0.00,,BKN250,0.00,VWS V14.01,2013-02-10 00:25:00,
2013-02-09 19:30:00,18.2,6.7,30.08,SE,130,4.0,18.0,60,0.00,,BKN250,0.00,VWS V14.01,2013-02-10 00:30:00,
2013-02-09 19:35:00,18.1,6.6,30.08,NNE,12,7.0,18.0,60,0.00,,BKN250,0.00,VWS V14.01,2013-02-10 00:35:00,
2013-02-09 19:40:00,17.9,6.4,30.08,North,5,4.0,18.0,60,0.00,,BKN250,0.00,VWS V14.01,2013-02-10 00:40:00,
2013-02-09 19:45:00,17.8,6.3,30.08,West,279,5.0,19.0,60,0.00,,BKN250,0.00,VWS V14.01,2013-02-10 00:45:00,
2013-02-09 19:50:00,17.7,6.2,30.08,WNW,293,5.0,19.0,60,0.00,,BKN250,0.00,VWS V14.01,2013-02-10 00:50:00,
2013-02-09 19:55:00,17.7,6.2,30.09,NW,318,3.0,19.0,60,0.00,,BKN250,0.00,VWS V14.01,2013-02-10 00:55:00,
2013-02-09 20:00:00,17.5,6.4,30.09,SSW,195,3.0,4.0,61,0.00,,CLR,0.00,VWS V14.01,2013-02-10 01:00:00,
2013-02-09 20:05:00,17.4,6.3,30.09,WNW,284,7.0,12.0,61,0.00,,CLR,0.00,VWS V14.01,2013-02-10 01:05:00,
2013-02-09 20:10:00,17.3,6.2,30.10,WNW,292,9.0,12.0,61,0.00,,CLR,0.00,VWS V14.01,2013-02-10 01:10:00,
2013-02-09 20:15:00,17.2,6.1,30.10,NW,311,4.0,16.0,61,0.00,,CLR,0.00,VWS V14.01,2013-02-10 01:15:00,
2013-02-09 20:20:00,17.0,5.9,30.11,NW,309,6.0,16.0,61,0.00,,CLR,0.00,VWS V14.01,2013-02-10 01:20:00,
2013-02-09 20:25:00,16.9,5.8,30.11,NNW,331,6.0,16.0,61,0.00,,CLR,0.00,VWS V14.01,2013-02-10 01:25:00,
2013-02-09 20:30:00,16.7,5.6,30.11,West,279,4.0,16.0,61,0.00,,CLR,0.00,VWS V14.01,2013-02-10 01:30:00,
2013-02-09 20:36:00,16.5,5.4,30.11,West,281,10.0,16.0,61,0.00,,CLR,0.00,VWS V14.01,2013-02-10 01:36:00,
2013-02-09 20:41:00,16.4,5.3,30.11,NNW,346,1.0,16.0,61,0.00,,CLR,0.00,VWS V14.01,2013-02-10 01:41:00,
2013-02-09 20:46:00,16.3,5.2,30.12,NE,43,5.0,16.0,61,0.00,,CLR,0.00,VWS V14.01,2013-02-10 01:46:00,
2013-02-09 20:51:00,16.2,5.1,30.12,WNW,292,6.0,16.0,61,0.00,,CLR,0.00,VWS V14.01,2013-02-10 01:51:00,
2013-02-09 20:56:00,16.1,5.0,30.12,NW,314,5.0,16.0,61,0.00,,CLR,0.00,VWS V14.01,2013-02-10 01:56:00,
2013-02-09 21:01:00,16.0,4.6,30.12,NNW,341,5.0,12.0,60,0.00,,SCT150,0.00,VWS V14.01,2013-02-10 02:01:00,
2013-02-09 21:06:00,15.9,4.8,30.12,NW,318,5.0,14.0,61,0.00,,SCT150,0.00,VWS V14.01,2013-02-10 02:06:00,
2013-02-09 21:11:00,15.7,4.7,30.12,North,350,4.0,14.0,61,0.00,,SCT150,0.00,VWS V14.01,2013-02-10 02:11:00,
2013-02-09 21:16:00,15.6,4.6,30.13,NW,319,3.0,14.0,61,0.00,,SCT150,0.00,VWS V14.01,2013-02-10 02:16:00,
2013-02-09 21:21:00,15.6,4.2,30.13,NNW,343,4.0,14.0,60,0.00,,SCT150,0.00,VWS V14.01,2013-02-10 02:21:00,
2013-02-09 21:26:00,15.5,4.5,30.13,NNE,21,5.0,14.0,61,0.00,,SCT150,0.00,VWS V14.01,2013-02-10 02:26:00,
2013-02-09 21:31:00,15.4,4.0,30.13,NW,317,8.0,15.0,60,0.00,,SCT150,0.00,VWS V14.01,2013-02-10 02:31:00,
2013-02-09 21:36:00,15.3,3.9,30.13,WNW,296,8.0,15.0,60,0.00,,SCT150,0.00,VWS V14.01,2013-02-10 02:36:00,
2013-02-09 21:41:00,15.3,3.9,30.14,NW,304,3.0,15.0,60,0.00,,SCT150,0.00,VWS V14.01,2013-02-10 02:41:00,
2013-02-09 21:46:00,15.1,4.1,30.14,WNW,294,4.0,15.0,61,0.00,,SCT150,0.00,VWS V14.01,2013-02-10 02:46:00,
2013-02-09 21:51:00,15.1,3.7,30.14,NW,304,2.0,15.0,60,0.00,,SCT150,0.00,VWS V14.01,2013-02-10 02:51:00,
2013-02-09 21:56:00,15.0,4.0,30.14,NNW,336,6.0,15.0,61,0.00,,SCT150,0.00,VWS V14.01,2013-02-10 02:56:00,
2013-02-09 22:01:00,14.9,3.5,30.14,SW,232,7.0,12.0,60,0.00,,SCT150,0.00,VWS V14.01,2013-02-10 03:01:00,
2013-02-09 22:06:00,14.9,3.5,30.14,WNW,287,6.0,12.0,60,0.00,,SCT150,0.00,VWS V14.01,2013-02-10 03:06:00,
2013-02-09 22:11:00,14.8,3.8,30.15,NNW,348,5.0,12.0,61,0.00,,SCT150,0.00,VWS V14.01,2013-02-10 03:11:00,
2013-02-09 22:16:00,14.8,3.4,30.15,WNW,302,3.0,12.0,60,0.00,,SCT150,0.00,VWS V14.01,2013-02-10 03:16:00,
2013-02-09 22:21:00,14.7,3.3,30.15,NW,314,3.0,12.0,60,0.00,,SCT150,0.00,VWS V14.01,2013-02-10 03:21:00,
2013-02-09 22:26:00,14.6,3.2,30.15,WNW,299,3.0,12.0,60,0.00,,SCT150,0.00,VWS V14.01,2013-02-10 03:26:00,
2013-02-09 22:31:00,14.6,3.2,30.15,NW,307,2.0,12.0,60,0.00,,SCT150,0.00,VWS V14.01,2013-02-10 03:31:00,
2013-02-09 22:36:00,14.5,3.2,30.16,NW,311,11.0,12.0,60,0.00,,SCT150,0.00,VWS V14.01,2013-02-10 03:36:00,
2013-02-09 22:41:00,14.5,3.2,30.16,WNW,292,4.0,12.0,60,0.00,,SCT150,0.00,VWS V14.01,2013-02-10 03:41:00,
2013-02-09 22:46:00,14.5,3.2,30.16,NW,323,5.0,12.0,60,0.00,,SCT150,0.00,VWS V14.01,2013-02-10 03:46:00,
2013-02-09 22:51:00,14.4,3.1,30.16,WNW,290,4.0,12.0,60,0.00,,SCT150,0.00,VWS V14.01,2013-02-10 03:51:00,
2013-02-09 22:56:00,14.4,3.1,30.16,West,269,4.0,12.0,60,0.00,,SCT150,0.00,VWS V14.01,2013-02-10 03:56:00,
2013-02-09 23:01:00,14.4,2.7,30.16,WNW,288,7.0,7.0,59,0.00,,CLR,0.00,VWS V14.01,2013-02-10 04:01:00,
2013-02-09 23:06:00,14.4,2.7,30.16,NW,319,7.0,11.0,59,0.00,,CLR,0.00,VWS V14.01,2013-02-10 04:06:00,
2013-02-09 23:11:00,14.5,2.8,30.17,WNW,302,2.0,14.0,59,0.00,,CLR,0.00,VWS V14.01,2013-02-10 04:11:00,
2013-02-09 23:16:00,14.4,2.7,30.17,West,273,3.0,14.0,59,0.00,,CLR,0.00,VWS V14.01,2013-02-10 04:16:00,
2013-02-09 23:21:00,14.3,2.2,30.17,NNE,28,6.0,14.0,58,0.00,,CLR,0.00,VWS V14.01,2013-02-10 04:21:00,
2013-02-09 23:26:00,14.3,2.6,30.17,WNW,300,4.0,14.0,59,0.00,,CLR,0.00,VWS V14.01,2013-02-10 04:26:00,
2013-02-09 23:31:00,14.3,2.2,30.17,WNW,288,6.0,14.0,58,0.00,,CLR,0.00,VWS V14.01,2013-02-10 04:31:00,
2013-02-09 23:36:00,14.2,2.2,30.17,WNW,288,2.0,14.0,58,0.00,,CLR,0.00,VWS V14.01,2013-02-10 04:36:00,
2013-02-09 23:41:00,14.2,2.2,30.18,NW,323,8.0,14.0,58,0.00,,CLR,0.00,VWS V14.01,2013-02-10 04:41:00,
2013-02-09 23:46:00,14.2,1.8,30.18,West,269,1.0,14.0,57,0.00,,CLR,0.00,VWS V14.01,2013-02-10 04:46:00,
2013-02-09 23:51:00,14.3,1.9,30.18,North,11,6.0,14.0,57,0.00,,CLR,0.00,VWS V14.01,2013-02-10 04:51:00,
2013-02-09 23:56:00,14.3,1.9,30.18,NW,309,3.0,14.0,57,0.00,,CLR,0.00,VWS V14.01,2013-02-10 04:56:00,